星链-11208 (STARLINK-11208)

导读 | 星芒AI

STARLINK-11208 是 SpaceX Starlink 项目中的一颗低轨通信卫星,属于第 11 批发射的 Starlink 卫星群。该卫星于 2021 年 2 月 18 日由猎鹰 9 号火箭从佛罗里达州卡纳维拉尔角发射升空。其主要任务是为全球提供高速、低延迟的互联网服务,尤其服务于传统网络难以覆盖的偏远地区。STARLINK-11208 采用先进的推进系统和激光通信技术,支持卫星间高速数据传输,提高网络效率和稳定性。

基本信息
目录编号:
60311
目录名称:
STARLINK-11208
国际标识:
2024-133L
轨道中心:
EARTH
卫星名称:
星链-11208 (STARLINK-11208)
卫星全名:
星链-11208 (STARLINK-11208)
卫星状态:
已陨落 最后检测时间 2025-06-15
发射日期:
2024-07-28 UTC
国别 :
美国 (US)
星等 :
--
轨道信息
数据来源 国际轨道数据
星历时间: 2025-06-15T11:51:47+0800
轨道信息已过期183天
半长轴: 6559.136km
偏心率: 0.0011906
轨道倾角: 53.136°
近地点辐角 259.313°
升交点赤经 20.509°
平近点角 197.488°
近地点: 173.191km
远地点: 188.811km
周期: 88.111分钟
每日圈数: 16.343039
详细信息
卫星平台:
Starlink v2.0 mini
运营商:
太空探索技术公司
运营商所在国:
美国
制造商(研发单位):
太空探索技术公司
制造商所在国:
美国
使用方式:
暂无
卫星简介
星链(Starlink)计划是由太空探索技术公司(SpaceX)提出的一个巨型低轨卫星互联网星座项目,计划在2019年至2024年间在太空搭建由约1.2万颗卫星组成的“星链”网络,其中1584颗将部署在地球上空550千米处的近地轨道,并从2020年开始工作。该卫星仍在工作。